Regional Weather Roundup
Issued by NWS

Home | Current Version | Previous Version | Text Only | Print | Product List | Glossary Off
Versions: 1 2 3 4 5 6 7 8 9 10 11 12 13 14 15 16 17 18 19 20 21 22 23 24 25 26 27 28

000
ASUS45 KCYS 232210
RWRWY

WYOMING REGIONAL WEATHER ROUNDUP
NATIONAL WEATHER SERVICE CHEYENNE WY
300 PM MST MON JAN 23 2017

NOTE:  "FAIR" INDICATES FEW OR NO CLOUDS BELOW 12,000 FEET
WITH NO SIGNIFICANT WEATHER AND/OR OBSTRUCTIONS TO VISIBILITY.

WYZ001-232300-
YELLOWSTONE NATIONAL PARK

CITY           SKY/WX    TMP DP  RH WIND       PRES   REMARKS
LK YELLOWSTONE   N/A     20  13  74 CALM      29.46S
W YELLOWSTONE  NOT AVBL

$$
WYZ002>013-054>058-071-098>099-232300-
NORTHERN WYOMING

CITY           SKY/WX    TMP DP  RH WIND       PRES   REMARKS
JACKSON        LGT SNOW  23  21  93 CALM      29.45S
CODY           FAIR      24  18  77 NE14      29.57F WCI  12
GREYBULL       FAIR      27  21  78 NW14      29.58S WCI  16
WORLAND        FAIR      28  25  88 N8        29.57S WCI  20
SHERIDAN       FAIR      27  20  75 W13       29.63R WCI  16
BUFFALO        FAIR      30  18  60 N9        29.59R WCI  22
GILLETTE       FAIR      32  22  66 N10       29.58S WCI  24
HULETT         FAIR      28  21  74 NE6       29.60R WCI  22
NEWCASTLE      FAIR      32  28  86 W9        29.57S WCI  24

$$
WYZ014>020-022>026-101>103-232300-
CENTRAL WYOMING

CITY           SKY/WX    TMP DP  RH WIND       PRES   REMARKS
BIG PINEY      LGT SNOW  22  19  89 NE8       29.42F FOG     WCI  12
PINEDALE       LGT SNOW  25  23  93 CALM      29.45F
DUBOIS         NOT AVBL
LANDER         CLOUDY    26  20  77 NW5       29.51S WCI  20
RIVERTON       LGT SNOW  22  21  96 SE3       29.53R FOG
CASPER         FLURRIES  34  27  75 N5        29.53R WCI  30
DOUGLAS        CLOUDY    39  22  50 N9        29.53S WCI  33

$$
WYZ021-027>030-104>119-232300-
SOUTHERN WYOMING

CITY           SKY/WX    TMP DP  RH WIND       PRES   REMARKS
EVANSTON       PTSUNNY   27  20  75 SW23      29.37S WCI  12
ROCK SPRINGS   SNOW      31  28  89 CALM      29.44F VSB 1/2
RAWLINS        CLOUDY    35  26  69 SW15      29.48R WCI  25
LARAMIE        LGT SNOW  33  28  81 CALM      29.51R
CHEYENNE       PTSUNNY   47  21  35 W14       29.51S
TORRINGTON     CLOUDY    45  27  49 W6        29.53R

$$




USA.gov is the U.S. government's official web portal to all federal, state and local government web resources and services.